sat.trackr.live / text

‹ back to catalog

STARLINK-32535

NORAD 62119 · 2024-222F

PAYLOAD ACTIVE UNKNOWN

§ Identity

Operator
Country
US
Launch date
2024-11-27
Launch site
AFETR
Launch vehicle
Mass (kg)
RCS (m²)

Purposes: comms

External: N2YO · Heavens-Above · Gunter

§ Orbital elements

Epoch: 2026-05-25T04:09:48.926016Z

Period
94.26 min
Inclination
42.9992°
Eccentricity
0.0001569
Mean motion
15.27617786 rev/d
Perigee alt
481.9 km
Apogee alt
484.0 km
Semi-major
6,861.1 km
B*
7.7656e-4
RAAN
61.0049°
Arg perigee
273.5643°
Mean anomaly
86.5029°
Rev number
8,449

§ Raw data

STARLINK-325351 62119U 24222F   26145.17348294  .00021193  00000+0  77656-3 0  99962 62119  42.9992  61.0049 0001569 273.5643  86.5029 15.27617786 84492

JSON: /api/v1/satellites/62119 · /tle

For live sub-satellite position, see the globe view (requires WebGL).

§ Visibility from observer

Set your observer location to see the next 7 days of passes ≥ 10°. The values pass through the URL so the page stays shareable.

No JS? Fill the form by hand. The geolocation button needs JavaScript.